Wind_Speed
22 23 24 24 25 26 26 26 27 27 27 28 29 29 29 29 28 28 28 28 28 28 28 27 27 27 26 25 24 24 23 22 22 21 20 19 19 19 18 18 18 18 18
24 25 26 27 27 28 28 29 29 29 30 30 31 32 32 32 31 31 31 31 31 31 30 29 29 29 29 28 27 26 25 24 24 23 22 22 21 21 20 20 20 20 20
27 27 27 28 29 30 30 31 32 32 32 33 34 35 36 36 35 35 34 34 34 34 33 32 32 31 31 30 29 28 27 27 26 26 25 24 23 23 23 22 22 22 21
30 29 29 29 30 31 32 33 34 35 36 36 37 38 39 39 38 38 37 37 37 37 37 36 35 34 34 33 33 32 31 30 29 28 28 27 26 26 25 25 24 24 24
31 32 32 32 33 34 35 36 37 38 38 39 41 41 42 42 42 42 41 41 40 40 40 39 39 38 37 37 36 35 34 33 32 32 31 30 30 29 28 28 27 27 27
33 34 35 35 37 37 38 39 40 40 41 42 43 44 45 45 45 45 45 44 44 43 43 43 42 41 41 40 39 38 37 37 36 35 34 34 34 33 33 32 31 30 29
36 36 37 38 39 40 41 42 42 43 44 45 46 47 48 48 48 48 48 48 47 47 46 45 45 45 44 43 43 42 41 40 39 39 38 38 37 37 37 36 35 34 33
39 39 39 40 41 42 43 44 45 46 47 48 49 50 50 50 49 51 51 51 50 50 49 48 48 47 47 47 46 45 44 43 43 42 42 41 41 41 40 40 39 37 36
40 41 42 43 44 45 45 46 47 48 49 50 50 52 52 52 52 52 53 53 53 53 52 51 51 50 49 49 48 48 47 46 46 45 45 45 44 44 44 44 43 42 40
42 43 44 45 46 47 47 48 49 50 50 50 51 52 54 54 55 55 54 55 56 56 55 55 54 53 52 52 51 50 49 49 48 48 48 48 47 47 47 46 45 45 44
43 44 45 46 47 48 48 49 50 50 50 51 52 53 55 56 57 58 58 58 58 58 58 57 56 55 55 54 53 52 51 51 50 50 49 50 50 50 49 49 48 47 46
45 45 46 47 47 47 48 48 48 49 50 51 53 54 55 57 58 59 60 60 60 60 59 59 58 57 57 56 55 54 53 52 51 51 51 50 51 50 48 47 48 48 47
46 46 47 47 47 46 47 47 47 48 50 51 52 54 56 57 59 60 61 61 61 60 60 60 60 59 58 57 56 56 54 53 53 52 51 50 47 46 46 46 46 48 49
45 46 46 46 46 46 45 45 46 47 48 49 51 53 54 55 56 57 58 59 60 59 58 57 57 57 58 57 57 56 55 55 55 53 51 50 48 46 45 46 46 46 47
44 44 44 45 45 44 44 44 44 46 47 49 50 51 51 52 54 55 55 56 56 55 54 54 54 52 53 54 54 56 55 54 54 53 52 50 49 47 46 46 46 47 47
43 43 43 43 42 42 42 43 44 45 46 47 48 48 48 49 50 51 51 52 52 51 50 49 49 48 48 49 51 52 53 54 54 54 53 50 50 48 47 47 48 49 51
41 41 41 40 40 41 41 42 43 43 44 44 44 44 45 47 47 47 47 46 46 46 46 45 46 47 45 46 48 50 51 52 51 52 51 50 49 49 49 50 51 53 53
39 39 39 39 39 39 39 40 41 41 41 40 40 41 42 42 42 42 42 42 41 40 39 39 40 42 44 43 44 46 48 50 50 51 51 51 51 52 53 53 53 54 55
37 37 37 37 37 37 38 39 38 38 37 37 37 37 38 38 38 37 37 36 35 35 35 35 34 34 36 39 41 43 45 47 49 50 51 52 53 53 53 53 53 54 54
35 35 35 35 36 36 37 37 36 35 35 34 35 35 35 35 34 33 33 32 30 29 30 30 29 29 31 34 36 38 41 44 45 48 49 50 51 52 52 53 53 53 54
33 33 33 34 34 35 35 35 34 34 33 33 33 32 32 31 30 30 29 28 26 25 25 25 26 27 29 32 34 36 38 40 43 45 47 49 51 52 53 54 55 55 56
31 31 31 32 32 33 33 33 32 31 31 30 30 29 29 28 28 27 26 25 24 24 24 24 24 26 27 29 31 34 37 39 42 44 47 49 51 52 54 55 56 57 57
29 29 30 30 30 31 31 30 30 29 28 28 27 28 27 27 27 26 26 26 25 25 24 25 25 26 28 30 32 34 36 39 42 45 47 49 51 53 55 56 57 57 58
27 27 28 28 28 29 28 28 28 27 27 27 27 27 27 27 27 26 26 26 26 26 26 26 27 29 30 32 34 37 39 42 44 47 49 51 53 54 56 57 57 58 57
25 25 26 27 27 27 27 27 27 26 26 27 27 27 27 27 27 27 28 28 28 28 29 30 31 32 34 36 38 40 42 45 47 49 51 52 54 55 56 57 57 56 56
24 24 25 25 26 26 26 26 26 26 27 27 28 28 28 28 29 29 30 30 31 32 32 33 34 36 37 39 41 43 45 47 50 52 53 54 55 55 54 55 55 54 54
Wind_Direction
288 290 291 293 293 293 293 293 293 293 292 292 291 290 290 290 289 288 287 286 285 284 283 282 282 282 282 281 281 280 280 280 280 280 280 279 279 278 277 275 273 272 272
286 287 289 291 292 293 294 294 293 292 291 290 290 289 288 288 288 287 286 285 284 282 281 280 279 279 279 278 277 277 276 275 276 276 276 275 274 275 275 274 272 271 271
284 285 287 289 290 292 293 293 293 292 291 290 289 288 287 287 285 284 284 283 282 281 280 279 278 277 276 275 274 273 273 272 272 272 272 271 271 271 272 272 271 271 270
283 284 285 286 288 289 290 291 291 291 290 290 288 287 286 285 284 283 282 281 280 279 279 278 276 275 274 273 272 271 270 269 269 269 269 268 268 269 269 270 270 270 269
282 284 286 287 288 289 289 290 289 289 289 288 287 286 285 284 283 282 281 279 278 277 276 275 274 273 273 272 270 269 269 268 267 267 267 267 267 267 267 268 269 269 268
281 284 286 287 289 289 290 290 290 290 289 288 287 287 286 285 284 283 281 280 278 277 275 274 274 273 271 271 269 269 268 267 266 265 265 266 267 267 267 268 268 267 267
281 283 285 287 288 289 289 289 290 290 289 289 288 288 287 286 286 284 282 281 279 277 276 275 274 272 271 270 269 268 267 267 266 265 265 266 267 267 268 268 268 268 268
282 284 285 286 287 288 288 289 289 289 289 289 289 288 287 287 288 286 284 283 281 279 278 276 274 273 271 270 268 267 267 267 266 266 266 266 266 267 267 268 268 268 268
281 283 285 286 287 288 289 289 290 289 289 289 289 289 289 289 287 286 286 285 283 281 279 277 275 273 271 269 269 267 267 267 267 266 267 266 266 267 267 267 267 267 268
279 281 283 285 286 287 288 289 289 289 289 289 289 290 290 290 289 288 286 285 283 281 278 276 274 271 270 269 268 268 267 267 267 267 268 268 267 267 267 267 266 266 267
278 280 282 284 285 286 287 288 289 289 290 291 291 291 290 290 289 289 287 285 282 280 277 275 273 271 269 268 267 267 267 267 267 267 268 268 268 267 266 267 266 266 266
278 279 281 283 284 286 287 288 288 289 290 291 292 292 291 291 290 289 288 286 283 280 277 274 271 269 268 265 265 265 266 266 266 267 268 268 269 267 265 265 265 265 265
278 280 281 283 284 285 287 287 288 290 291 292 293 293 292 292 291 289 288 286 283 280 276 274 270 267 265 263 262 262 263 265 266 267 269 269 269 267 266 266 267 266 266
278 280 281 283 284 286 287 288 290 291 293 294 295 295 294 293 292 290 289 287 284 281 278 274 270 266 262 261 260 261 261 263 265 267 269 268 268 269 269 268 267 268 267
278 280 282 283 284 285 287 288 290 292 294 295 296 296 296 296 295 293 291 289 286 282 278 274 268 267 262 259 259 260 261 262 264 267 269 269 269 272 273 271 269 270 271
278 280 282 283 284 286 287 289 291 293 295 297 297 298 299 300 298 296 295 291 287 284 280 275 270 267 264 259 258 259 259 263 265 266 270 271 272 273 273 273 274 274 275
279 280 280 282 284 286 288 291 293 295 297 298 300 301 302 303 302 300 299 295 290 286 282 278 273 270 267 263 259 259 260 264 265 267 270 273 274 274 274 276 276 276 277
278 279 280 282 284 287 290 293 296 297 298 300 303 304 306 308 308 306 303 299 293 288 287 281 279 275 269 267 265 263 263 265 266 269 272 273 274 277 278 278 279 278 277
278 280 281 283 286 288 292 296 298 299 300 301 304 307 310 311 311 310 308 305 299 292 290 287 284 279 273 270 269 267 267 268 270 272 273 275 277 279 280 280 280 280 279
279 281 283 285 287 290 294 297 298 299 301 302 305 308 311 313 313 313 312 310 306 301 298 293 290 285 280 276 273 272 271 273 274 275 276 277 279 280 281 281 281 281 280
280 282 285 287 289 292 294 297 298 300 301 303 305 308 311 314 315 315 315 313 311 308 305 300 294 290 286 283 279 277 276 277 279 279 279 279 281 282 282 283 283 282 282
282 284 287 289 291 293 295 297 298 300 301 302 305 307 310 313 315 316 316 315 314 311 306 302 298 292 288 286 284 282 281 281 282 281 282 282 283 284 284 284 284 284 284
284 287 289 291 292 294 296 297 299 300 300 302 305 307 309 311 312 314 315 314 313 311 309 305 301 297 294 292 290 288 287 286 286 286 286 286 286 286 287 287 286 286 285
286 288 290 292 293 295 297 298 299 299 300 303 305 307 309 311 312 313 314 314 312 310 308 305 303 300 297 294 292 291 290 290 289 289 289 288 288 288 288 288 287 286 285
288 290 291 293 295 297 298 298 298 299 301 303 306 307 309 310 311 312 312 311 310 308 306 304 302 300 298 296 295 294 293 292 292 291 291 290 290 290 289 289 288 286 286
290 292 294 295 296 297 298 298 299 301 303 304 306 307 308 310 310 311 310 309 308 307 305 304 303 302 300 299 298 297 296 295 295 294 293 293 292 291 290 289 288 286 286
Height
5862 5861 5860 5859 5857 5856 5855 5853 5852 5850 5849 5847 5845 5844 5842 5841 5839 5838 5836 5834 5833 5831 5830 5828 5827 5826 5824 5823 5822 5821 5820 5818 5817 5816 5815 5814 5813 5812 5811 5810 5810 5809 5808
5858 5857 5856 5854 5853 5851 5850 5848 5847 5845 5844 5842 5840 5838 5836 5835 5834 5832 5830 5828 5826 5825 5823 5822 5820 5819 5818 5817 5816 5815 5814 5813 5812 5811 5810 5809 5808 5807 5806 5805 5805 5804 5804
5853 5852 5851 5850 5848 5846 5845 5843 5841 5839 5837 5836 5834 5832 5830 5828 5827 5825 5823 5821 5819 5818 5816 5815 5814 5812 5811 5810 5809 5808 5807 5806 5805 5804 5804 5803 5802 5801 5800 5800 5799 5799 5798
5847 5846 5846 5844 5842 5840 5839 5837 5835 5832 5831 5829 5827 5824 5822 5821 5819 5818 5816 5814 5812 5810 5808 5807 5806 5804 5803 5802 5801 5800 5799 5798 5798 5797 5797 5796 5795 5795 5794 5793 5793 5793 5792
5840 5839 5838 5837 5835 5834 5832 5830 5828 5825 5823 5821 5819 5816 5814 5813 5811 5809 5807 5805 5803 5801 5799 5798 5797 5796 5794 5793 5792 5791 5791 5790 5789 5789 5788 5788 5787 5787 5787 5786 5786 5786 5786
5834 5832 5831 5829 5827 5825 5823 5821 5819 5817 5815 5812 5810 5808 5805 5803 5801 5800 5798 5796 5794 5792 5790 5788 5787 5786 5784 5783 5783 5782 5781 5781 5780 5780 5779 5779 5779 5779 5778 5778 5778 5778 5778
5826 5825 5823 5821 5819 5817 5815 5812 5810 5807 5805 5802 5799 5797 5795 5793 5791 5789 5787 5785 5783 5781 5779 5778 5776 5775 5774 5773 5772 5772 5771 5771 5770 5770 5770 5770 5770 5769 5769 5769 5769 5769 5769
5817 5816 5814 5812 5810 5808 5806 5803 5800 5798 5795 5791 5788 5785 5784 5783 5780 5777 5775 5773 5771 5769 5768 5766 5765 5764 5762 5761 5761 5760 5760 5760 5760 5759 5759 5759 5759 5759 5759 5759 5759 5760 5760
5809 5807 5805 5803 5801 5798 5796 5793 5790 5787 5784 5781 5777 5774 5771 5770 5768 5766 5762 5760 5758 5757 5755 5754 5753 5751 5750 5750 5749 5749 5749 5749 5748 5748 5748 5748 5748 5748 5748 5748 5749 5749 5750
5800 5798 5796 5793 5791 5788 5786 5783 5779 5776 5773 5770 5766 5762 5759 5757 5754 5752 5751 5747 5744 5743 5741 5740 5738 5738 5737 5737 5736 5736 5736 5736 5736 5736 5736 5736 5736 5736 5736 5736 5737 5737 5738
5791 5789 5786 5784 5781 5778 5775 5772 5769 5765 5762 5758 5755 5751 5746 5743 5740 5736 5735 5734 5730 5728 5726 5724 5724 5723 5723 5723 5723 5723 5723 5723 5723 5723 5723 5723 5723 5723 5723 5723 5724 5725 5726
5781 5779 5776 5774 5771 5768 5765 5762 5758 5754 5751 5747 5743 5739 5734 5730 5726 5722 5718 5716 5714 5712 5709 5708 5708 5707 5707 5707 5708 5708 5708 5708 5708 5709 5709 5709 5709 5709 5709 5710 5710 5711 5712
5770 5768 5766 5764 5761 5758 5755 5751 5748 5744 5740 5736 5731 5726 5722 5717 5712 5707 5702 5698 5695 5694 5692 5691 5690 5689 5690 5691 5692 5692 5693 5693 5693 5694 5694 5694 5694 5695 5696 5696 5697 5698 5699
5760 5758 5755 5753 5750 5748 5744 5741 5737 5733 5729 5724 5719 5714 5709 5704 5697 5691 5686 5681 5677 5675 5674 5673 5672 5670 5672 5673 5675 5676 5678 5678 5679 5679 5679 5680 5681 5681 5682 5682 5682 5683 5685
5750 5747 5745 5743 5740 5737 5734 5731 5727 5723 5718 5713 5708 5702 5696 5690 5684 5677 5671 5665 5659 5656 5656 5655 5654 5653 5654 5656 5658 5660 5662 5663 5664 5665 5666 5666 5666 5667 5667 5668 5669 5669 5670
5740 5737 5735 5732 5730 5727 5724 5720 5717 5712 5707 5702 5696 5690 5684 5677 5670 5664 5657 5650 5644 5640 5638 5639 5637 5637 5637 5639 5642 5645 5647 5649 5650 5651 5652 5652 5652 5653 5653 5654 5654 5655 5655
5730 5727 5725 5723 5720 5717 5714 5710 5706 5701 5696 5691 5685 5679 5672 5665 5658 5651 5644 5637 5632 5627 5624 5624 5623 5624 5625 5627 5629 5631 5633 5635 5637 5637 5638 5638 5639 5639 5639 5639 5639 5639 5639
5720 5717 5715 5713 5710 5707 5704 5700 5696 5691 5686 5680 5675 5668 5662 5654 5647 5640 5633 5627 5621 5617 5614 5613 5612 5612 5613 5615 5617 5619 5621 5623 5624 5625 5625 5625 5625 5624 5624 5624 5623 5623 5622
5710 5708 5705 5703 5700 5697 5694 5690 5685 5681 5676 5671 5665 5659 5653 5645 5638 5631 5625 5619 5613 5609 5607 5605 5604 5603 5604 5605 5606 5608 5610 5611 5612 5612 5612 5612 5610 5609 5609 5608 5607 5606 5605
5701 5698 5696 5694 5691 5688 5684 5680 5676 5671 5666 5662 5656 5651 5644 5638 5631 5625 5618 5613 5607 5604 5601 5598 5597 5596 5597 5597 5598 5599 5600 5600 5600 5600 5599 5598 5597 5595 5593 5592 5591 5589 5588
5691 5689 5687 5684 5682 5678 5675 5671 5667 5662 5658 5653 5648 5643 5637 5631 5625 5619 5614 5608 5603 5599 5596 5594 5592 5591 5591 5590 5590 5590 5590 5589 5589 5587 5586 5585 5583 5580 5578 5576 5574 5572 5570
5682 5680 5678 5675 5672 5669 5666 5662 5658 5654 5650 5645 5641 5636 5631 5626 5620 5615 5609 5604 5600 5596 5593 5590 5588 5587 5585 5584 5583 5582 5580 5580 5578 5577 5574 5571 5568 5565 5562 5560 5557 5554 5551
5674 5672 5670 5667 5664 5661 5657 5654 5650 5646 5642 5638 5634 5630 5625 5620 5615 5610 5605 5600 5596 5592 5589 5586 5583 5581 5579 5577 5575 5573 5571 5569 5566 5564 5560 5557 5553 5550 5546 5542 5539 5535 5532
5666 5664 5661 5659 5656 5653 5649 5646 5642 5639 5635 5631 5627 5623 5619 5614 5609 5604 5600 5596 5591 5587 5584 5580 5577 5575 5572 5569 5567 5564 5561 5557 5554 5550 5547 5543 5537 5533 5529 5525 5521 5517 5514
5659 5656 5654 5651 5648 5645 5642 5639 5635 5632 5628 5625 5621 5616 5612 5608 5603 5599 5594 5590 5586 5582 5578 5574 5571 5567 5563 5560 5556 5553 5549 5545 5541 5536 5532 5528 5522 5517 5512 5507 5502 5498 5495
5652 5649 5647 5644 5641 5638 5635 5631 5628 5625 5621 5618 5614 5610 5605 5601 5597 5592 5588 5583 5579 5575 5570 5566 5562 5558 5554 5549 5545 5541 5536 5531 5526 5521 5515 5511 5505 5500 5496 5489 5484 5480 5477